星链-4065 (STARLINK-4065 )

导读 | 星芒AI

STARLINK-4065 是 SpaceX Starlink 项目中的一颗低轨通信卫星,属于第二代星链卫星群。该卫星于 2023 年发射,旨在为全球用户提供高速、低延迟的互联网服务。它运行在约 550 公里的轨道高度,配备先进通信设备,支持宽带数据传输。作为 Starlink 网络的一部分,STARLINK-4065 有助于扩大覆盖范围,提升网络性能,特别是在偏远和网络基础设施薄弱的地区。该卫星采用可再生电力系统,并具备自主避障能力,以确保运行安全和可持续性。

基本信息
目录编号:
52841
目录名称:
STARLINK-4065
国际标识:
2022-062M
轨道中心:
EARTH
卫星名称:
星链-4065
卫星全名:
星链-4065 (STARLINK-4065 )
卫星状态:
在轨 (已飞行1237 天)
发射日期:
2022-06-17 UTC
国别 :
美国 (US)
星等 :
--
轨道信息
数据来源 国际轨道数据
星历时间: 2025-11-04T20:49:23+0800
11小时前
查看轨道信息
半长轴: 6917.854km
偏心率: 0.0001546
轨道倾角: 53.216°
近地点辐角 87.021°
升交点赤经 235.966°
平近点角 273.096°
近地点: 538.649km
远地点: 540.789km
周期: 95.437分钟
每日圈数: 15.088488
详细信息
固有亮度:
5
最大亮度:
2.5
卫星平台:
Starlink v1.5
覆盖范围:
全球
运营商:
太空探索技术公司
运营商所在国:
美国
制造商(研发单位):
太空探索技术公司
制造商所在国:
美国
使用方式:
暂无
卫星简介
星链(Starlink)计划是由太空探索技术公司(SpaceX)提出的一个巨型低轨卫星互联网星座项目,计划在2019年至2024年间在太空搭建由约1.2万颗卫星组成的“星链”网络,其中1584颗将部署在地球上空550千米处的近地轨道,并从2020年开始工作。该卫星仍在工作。
2D轨道图
3D轨道图
轨道高度分析图
轨道倾角分析图
轨道综合分析图
查看轨道综合分析图